Hourly Data Report for October 06, 2016

All times are specified in Local Standard Time (LST). Add 1 hour to adjust for Daylight Saving Time where and when it is observed.

KAMLOOPS A
BRITISH COLUMBIA

50°42'09.000" N
120°26'55.000" W
345.30 m
1163781
71887
YKA

Download Data

Hourly Data (October 2016)
Hourly Data Report for October 6, 2016
Temp Definition
°C
Dew Point Temp Definition
°C
Rel Hum Definition
%
Wind Dir Definition
10's deg

Wind Spd Definition
km/h
Visibility Definition
km
Stn Press Definition
kPa
Hmdx Definition


Wind Chill Definition


Weather Definition


TIME
00:00 Legend Double Dagger 10.5 6.9 78 25 8 64.4 97.55     LegendNANA
01:00 Legend Double Dagger 9.3 7.3 87 11 5 64.4 97.56     Cloudy
02:00 Legend Double Dagger 8.9 6.7 86 10 9 64.4 97.57     LegendNANA
03:00 Legend Double Dagger 8.2 6.3 88 8 8 64.4 97.60     LegendNANA
04:00 Legend Double Dagger 8.4 6.7 89 7 6 64.4 97.62     Rain Showers
05:00 Legend Double Dagger 8.3 6.6 89 9 8 64.4 97.62     LegendNANA
06:00 Legend Double Dagger 8.3 6.6 89 10 7 64.4 97.66     LegendNANA
07:00 Legend Double Dagger 8.8 6.8 87 10 12 64.4 97.70     Mostly Cloudy
08:00 Legend Double Dagger 9.2 6.8 85 10 14 64.4 97.72     LegendNANA
09:00 Legend Double Dagger 10.5 6.9 78 10 12 64.4 97.75     LegendNANA
10:00 Legend Double Dagger 11.4 6.8 73 11 10 64.4 97.71     Mostly Cloudy
11:00 Legend Double Dagger 12.7 6.6 66 11 12 64.4 97.68     LegendNANA
12:00 Legend Double Dagger 13.5 7.1 65 14 8 64.4 97.61     LegendNANA
13:00 Legend Double Dagger 14.1 7.2 63 11 8 64.4 97.53     Mostly Cloudy
14:00 Legend Double Dagger 14.9 7.3 60 6 16 64.4 97.48     LegendNANA
15:00 Legend Double Dagger 14.3 7.2 62 10 23 64.4 97.46     LegendNANA
16:00 Legend Double Dagger 12.2 8.1 76 7 23 64.4 97.46     Rain Showers
17:00 Legend Double Dagger 12.0 7.9 76 9 17 64.4 97.46     LegendNANA
18:00 Legend Double Dagger 11.4 8.1 80 10 18 64.4 97.45     LegendNANA
19:00 Legend Double Dagger 11.2 8.1 81 10 17 64.4 97.40     Cloudy
20:00 Legend Double Dagger 10.6 8.2 85 11 20 64.4 97.33     Rain
21:00 Legend Double Dagger 10.2 8.5 89 11 18 64.4 97.19     Rain
22:00 Legend Double Dagger 10.1 8.2 88 10 16 48.3 97.09     Rain
23:00 Legend Double Dagger 10.1 8.9 92 10 13 48.3 96.99     Rain

Notes on Data Quality.

Legend

  • E = Estimated
  • M = Missing
  • NA = Not Available
  • ‡ = Partner data that is not subject to review by the National Climate Archives
Date modified: